QPF
0.02 0.05 0.09 0.11 0.12 0.11 0.09 0.09 0.12 0.09 0.06 0.06 0.07 0.06 0.06 0.06 0.08 0.08 0.09 0.09 0.11 0.14 0.11 0.09 0.10 0.08 0.06 0.07 0.06 0.06 0.06 0.05 0.06 0.08 0.07 0.08 0.09 0.13 0.19 0.16 0.10 0.05 0.08
0.02 0.04 0.09 0.11 0.14 0.15 0.14 0.12 0.14 0.15 0.11 0.07 0.07 0.06 0.06 0.07 0.08 0.08 0.08 0.09 0.11 0.11 0.11 0.09 0.08 0.08 0.06 0.06 0.05 0.05 0.06 0.08 0.08 0.08 0.09 0.09 0.11 0.17 0.23 0.19 0.09 0.05 0.08
0.01 0.04 0.11 0.15 0.18 0.24 0.27 0.23 0.14 0.14 0.15 0.11 0.07 0.05 0.05 0.06 0.07 0.07 0.07 0.07 0.08 0.09 0.09 0.09 0.09 0.09 0.10 0.09 0.06 0.06 0.07 0.11 0.14 0.11 0.10 0.08 0.10 0.15 0.16 0.17 0.11 0.08 0.09
0.02 0.05 0.09 0.16 0.25 0.27 0.31 0.35 0.23 0.12 0.15 0.16 0.10 0.08 0.07 0.07 0.06 0.06 0.07 0.07 0.06 0.06 0.07 0.09 0.10 0.10 0.09 0.07 0.06 0.07 0.09 0.13 0.15 0.12 0.07 0.05 0.06 0.07 0.10 0.13 0.10 0.08 0.06
0.03 0.05 0.08 0.19 0.18 0.12 0.19 0.32 0.33 0.18 0.18 0.21 0.15 0.12 0.10 0.08 0.07 0.05 0.06 0.05 0.05 0.05 0.06 0.08 0.10 0.11 0.11 0.11 0.10 0.10 0.11 0.13 0.14 0.10 0.04 0.03 0.04 0.06 0.07 0.10 0.09 0.07 0.07
0.03 0.05 0.11 0.21 0.11 0.09 0.12 0.26 0.31 0.16 0.13 0.15 0.10 0.07 0.06 0.06 0.06 0.05 0.05 0.05 0.04 0.04 0.05 0.05 0.07 0.09 0.11 0.13 0.11 0.10 0.09 0.09 0.11 0.07 0.03 0.02 0.02 0.06 0.07 0.08 0.07 0.06 0.07
0.03 0.05 0.11 0.22 0.17 0.13 0.18 0.29 0.24 0.15 0.12 0.13 0.08 0.04 0.04 0.05 0.05 0.05 0.05 0.05 0.06 0.06 0.06 0.06 0.06 0.06 0.09 0.11 0.11 0.10 0.10 0.11 0.09 0.06 0.03 0.02 0.02 0.06 0.07 0.07 0.07 0.07 0.07
0.03 0.05 0.11 0.21 0.23 0.26 0.31 0.27 0.19 0.13 0.12 0.12 0.07 0.05 0.04 0.04 0.04 0.05 0.06 0.06 0.07 0.07 0.07 0.06 0.06 0.07 0.07 0.08 0.09 0.09 0.12 0.13 0.10 0.07 0.04 0.03 0.04 0.06 0.08 0.08 0.06 0.06 0.06
0.04 0.06 0.07 0.11 0.15 0.17 0.19 0.18 0.13 0.13 0.12 0.09 0.07 0.05 0.05 0.06 0.05 0.06 0.06 0.07 0.07 0.07 0.07 0.06 0.06 0.08 0.09 0.09 0.10 0.10 0.14 0.12 0.08 0.07 0.05 0.04 0.05 0.07 0.08 0.06 0.05 0.05 0.04
0.04 0.06 0.04 0.04 0.07 0.08 0.10 0.14 0.14 0.15 0.13 0.08 0.05 0.05 0.06 0.08 0.08 0.07 0.05 0.06 0.07 0.07 0.06 0.05 0.06 0.09 0.11 0.13 0.14 0.14 0.18 0.10 0.05 0.05 0.05 0.04 0.06 0.08 0.08 0.07 0.05 0.04 0.04
0.03 0.05 0.04 0.03 0.05 0.08 0.10 0.12 0.14 0.15 0.12 0.07 0.04 0.04 0.04 0.07 0.08 0.05 0.04 0.04 0.07 0.08 0.06 0.05 0.07 0.08 0.07 0.09 0.13 0.16 0.16 0.06 0.02 0.03 0.04 0.05 0.07 0.09 0.08 0.07 0.07 0.06 0.05
0.02 0.04 0.04 0.02 0.03 0.04 0.06 0.06 0.07 0.06 0.05 0.03 0.02 0.02 0.02 0.07 0.13 0.12 0.09 0.07 0.07 0.08 0.08 0.06 0.07 0.07 0.05 0.06 0.11 0.16 0.11 0.05 0.01 0.02 0.05 0.07 0.08 0.08 0.07 0.07 0.07 0.06 0.06
0.02 0.03 0.04 0.03 0.03 0.03 0.03 0.02 0.02 0.02 0.02 0.01 0.01 0.01 0.01 0.04 0.11 0.16 0.14 0.09 0.07 0.05 0.06 0.06 0.05 0.05 0.05 0.07 0.10 0.09 0.06 0.03 0.02 0.01 0.03 0.05 0.08 0.09 0.08 0.08 0.07 0.07 0.06
0.02 0.02 0.03 0.02 0.02 0.02 0.02 0.02 0.01 0.02 0.01 0.01 0.01 0.01 0.01 0.01 0.05 0.11 0.13 0.08 0.05 0.04 0.06 0.06 0.05 0.06 0.06 0.07 0.07 0.06 0.03 0.02 0.01 0.02 0.02 0.04 0.08 0.11 0.11 0.11 0.09 0.07 0.07
0.02 0.02 0.03 0.02 0.01 0.01 0.02 0.01 0.01 0.01 0.01 0.01 0.01 0.01 0.01 0.01 0.03 0.03 0.04 0.05 0.05 0.04 0.04 0.05 0.06 0.07 0.07 0.07 0.06 0.05 0.02 0.01 0.02 0.02 0.04 0.05 0.08 0.10 0.10 0.12 0.10 0.07 0.08
0.03 0.03 0.03 0.02 0.01 0.01 0.01 0.01 0.01 0.01 0.01 0.01 0.01 0.01 0.02 0.02 0.03 0.02 0.04 0.05 0.07 0.06 0.05 0.05 0.06 0.08 0.08 0.08 0.07 0.04 0.03 0.02 0.01 0.02 0.03 0.04 0.06 0.08 0.08 0.11 0.09 0.07 0.08
0.03 0.03 0.03 0.02 0.00 0.01 0.01 0.01 0.01 0.02 0.01 0.01 0.02 0.02 0.02 0.02 0.03 0.02 0.03 0.04 0.07 0.09 0.09 0.10 0.08 0.08 0.08 0.06 0.05 0.04 0.02 0.01 0.01 0.01 0.03 0.04 0.04 0.06 0.08 0.09 0.09 0.09 0.09
0.02 0.03 0.03 0.01 0.00 0.01 0.01 0.02 0.01 0.01 0.01 0.02 0.01 0.01 0.02 0.03 0.05 0.04 0.03 0.03 0.04 0.08 0.12 0.12 0.08 0.08 0.07 0.04 0.03 0.03 0.01 0.01 0.02 0.01 0.03 0.03 0.03 0.04 0.06 0.07 0.09 0.08 0.07
0.03 0.04 0.02 0.01 0.01 0.02 0.02 0.01 0.02 0.01 0.01 0.01 0.01 0.01 0.03 0.05 0.05 0.03 0.03 0.02 0.02 0.05 0.10 0.10 0.07 0.08 0.06 0.04 0.03 0.02 0.01 0.01 0.02 0.02 0.03 0.04 0.03 0.02 0.04 0.07 0.07 0.09 0.09
0.04 0.04 0.02 0.02 0.02 0.02 0.02 0.01 0.01 0.01 0.01 0.01 0.02 0.02 0.03 0.04 0.04 0.04 0.03 0.02 0.02 0.03 0.06 0.07 0.08 0.07 0.04 0.03 0.02 0.01 0.01 0.01 0.01 0.01 0.02 0.02 0.02 0.02 0.03 0.04 0.05 0.06 0.08
0.05 0.05 0.03 0.02 0.03 0.02 0.02 0.01 0.01 0.01 0.02 0.01 0.02 0.02 0.02 0.02 0.02 0.03 0.03 0.03 0.03 0.02 0.03 0.04 0.04 0.04 0.03 0.02 0.01 0.02 0.02 0.01 0.01 0.01 0.01 0.01 0.02 0.03 0.03 0.03 0.03 0.05 0.06
0.05 0.04 0.03 0.03 0.03 0.02 0.01 0.01 0.01 0.01 0.01 0.01 0.01 0.02 0.01 0.01 0.02 0.02 0.02 0.03 0.03 0.03 0.04 0.03 0.02 0.02 0.02 0.03 0.02 0.03 0.02 0.02 0.03 0.03 0.03 0.03 0.03 0.03 0.04 0.04 0.03 0.03 0.04
0.04 0.02 0.02 0.02 0.02 0.01 0.01 0.01 0.01 0.01 0.01 0.01 0.01 0.01 0.01 0.01 0.02 0.03 0.03 0.03 0.04 0.04 0.03 0.03 0.03 0.03 0.03 0.03 0.03 0.03 0.03 0.03 0.04 0.05 0.06 0.05 0.04 0.03 0.04 0.05 0.05 0.04 0.04
0.03 0.02 0.01 0.01 0.00 0.01 0.01 0.00 0.00 0.01 0.01 0.01 0.01 0.01 0.01 0.01 0.02 0.03 0.03 0.03 0.03 0.02 0.03 0.03 0.03 0.03 0.03 0.04 0.04 0.04 0.04 0.04 0.05 0.05 0.05 0.04 0.03 0.02 0.03 0.04 0.05 0.05 0.05
0.03 0.02 0.01 0.01 0.00 0.00 0.00 0.00 0.00 0.00 0.00 0.01 0.01 0.01 0.01 0.02 0.02 0.02 0.03 0.03 0.02 0.01 0.02 0.02 0.02 0.03 0.03 0.03 0.04 0.05 0.06 0.06 0.06 0.04 0.04 0.03 0.02 0.04 0.05 0.04 0.03 0.05 0.05
0.02 0.01 0.01 0.00 0.00 0.00 0.00 0.00 0.00 0.01 0.01 0.01 0.02 0.02 0.01 0.01 0.02 0.02 0.03 0.03 0.02 0.02 0.03 0.04 0.04 0.04 0.05 0.04 0.04 0.04 0.04 0.05 0.05 0.05 0.03 0.02 0.02 0.03 0.04 0.04 0.03 0.04 0.06
MSLP
1008.75 1008.27 1007.95 1007.84 1007.93 1008.20 1008.57 1008.98 1009.38 1009.76 1010.10 1010.44 1010.80 1011.22 1011.70 1012.22 1012.75 1013.24 1013.66 1013.99 1014.22 1014.38 1014.50 1014.60 1014.71 1014.83 1014.97 1015.10 1015.20 1015.26 1015.27 1015.26 1015.24 1015.23 1015.27 1015.35 1015.46 1015.58 1015.69 1015.77 1015.80 1015.80 1015.78
1008.78 1008.37 1008.13 1008.10 1008.27 1008.59 1009.00 1009.44 1009.85 1010.22 1010.55 1010.88 1011.25 1011.67 1012.15 1012.66 1013.18 1013.66 1014.06 1014.36 1014.57 1014.70 1014.78 1014.86 1014.95 1015.05 1015.16 1015.25 1015.32 1015.34 1015.32 1015.28 1015.24 1015.23 1015.26 1015.34 1015.46 1015.59 1015.70 1015.78 1015.81 1015.81 1015.79
1008.76 1008.43 1008.28 1008.34 1008.59 1008.98 1009.45 1009.91 1010.34 1010.71 1011.04 1011.36 1011.72 1012.12 1012.59 1013.08 1013.57 1014.02 1014.38 1014.65 1014.82 1014.92 1014.99 1015.05 1015.12 1015.21 1015.29 1015.36 1015.39 1015.38 1015.34 1015.27 1015.21 1015.19 1015.21 1015.29 1015.40 1015.52 1015.64 1015.72 1015.77 1015.78 1015.79
1008.74 1008.49 1008.44 1008.59 1008.93 1009.39 1009.90 1010.40 1010.83 1011.20 1011.52 1011.83 1012.16 1012.55 1012.98 1013.43 1013.88 1014.29 1014.61 1014.84 1014.98 1015.07 1015.12 1015.18 1015.24 1015.32 1015.40 1015.45 1015.46 1015.43 1015.36 1015.27 1015.20 1015.15 1015.16 1015.22 1015.32 1015.44 1015.55 1015.63 1015.69 1015.73 1015.77
1008.79 1008.63 1008.66 1008.91 1009.32 1009.83 1010.37 1010.88 1011.31 1011.67 1011.97 1012.25 1012.55 1012.90 1013.29 1013.71 1014.12 1014.47 1014.76 1014.96 1015.08 1015.16 1015.22 1015.27 1015.34 1015.42 1015.49 1015.54 1015.54 1015.49 1015.41 1015.31 1015.21 1015.16 1015.14 1015.18 1015.25 1015.35 1015.44 1015.53 1015.60 1015.66 1015.73
1008.97 1008.88 1008.99 1009.30 1009.76 1010.30 1010.84 1011.34 1011.75 1012.08 1012.35 1012.60 1012.88 1013.19 1013.55 1013.93 1014.30 1014.62 1014.87 1015.05 1015.16 1015.24 1015.30 1015.36 1015.43 1015.51 1015.58 1015.62 1015.61 1015.56 1015.47 1015.36 1015.25 1015.18 1015.15 1015.16 1015.20 1015.27 1015.34 1015.41 1015.48 1015.57 1015.67
1009.29 1009.26 1009.43 1009.78 1010.26 1010.79 1011.31 1011.76 1012.13 1012.42 1012.66 1012.89 1013.14 1013.44 1013.78 1014.13 1014.47 1014.77 1015.00 1015.16 1015.26 1015.33 1015.38 1015.44 1015.51 1015.59 1015.64 1015.67 1015.65 1015.59 1015.49 1015.38 1015.27 1015.19 1015.15 1015.14 1015.16 1015.19 1015.24 1015.28 1015.35 1015.43 1015.55
1009.75 1009.78 1009.98 1010.34 1010.80 1011.29 1011.76 1012.15 1012.47 1012.71 1012.92 1013.13 1013.38 1013.68 1014.01 1014.36 1014.70 1014.98 1015.19 1015.33 1015.41 1015.45 1015.48 1015.52 1015.56 1015.61 1015.64 1015.64 1015.61 1015.54 1015.44 1015.33 1015.23 1015.16 1015.11 1015.09 1015.09 1015.10 1015.12 1015.14 1015.17 1015.24 1015.36
1010.31 1010.37 1010.59 1010.94 1011.36 1011.79 1012.19 1012.51 1012.76 1012.97 1013.16 1013.37 1013.63 1013.95 1014.30 1014.66 1014.99 1015.26 1015.44 1015.55 1015.59 1015.59 1015.58 1015.57 1015.56 1015.56 1015.55 1015.52 1015.46 1015.38 1015.28 1015.18 1015.10 1015.04 1015.01 1015.00 1014.99 1014.99 1014.97 1014.96 1014.96 1015.00 1015.09
1010.89 1010.99 1011.22 1011.55 1011.92 1012.28 1012.60 1012.85 1013.05 1013.23 1013.41 1013.64 1013.93 1014.28 1014.65 1015.02 1015.35 1015.59 1015.74 1015.80 1015.79 1015.73 1015.65 1015.57 1015.51 1015.45 1015.39 1015.32 1015.23 1015.14 1015.04 1014.96 1014.90 1014.87 1014.86 1014.86 1014.87 1014.85 1014.82 1014.78 1014.74 1014.73 1014.77
1011.44 1011.57 1011.81 1012.11 1012.43 1012.73 1012.98 1013.18 1013.34 1013.50 1013.70 1013.95 1014.27 1014.65 1015.05 1015.42 1015.74 1015.95 1016.06 1016.05 1015.97 1015.84 1015.68 1015.54 1015.40 1015.29 1015.18 1015.08 1014.98 1014.88 1014.79 1014.73 1014.70 1014.69 1014.71 1014.73 1014.75 1014.74 1014.69 1014.62 1014.54 1014.48 1014.47
1011.88 1012.06 1012.31 1012.60 1012.89 1013.14 1013.34 1013.50 1013.65 1013.80 1014.01 1014.30 1014.65 1015.04 1015.45 1015.82 1016.10 1016.27 1016.32 1016.25 1016.10 1015.90 1015.68 1015.47 1015.29 1015.14 1015.01 1014.90 1014.80 1014.71 1014.64 1014.59 1014.58 1014.60 1014.64 1014.68 1014.70 1014.68 1014.63 1014.53 1014.42 1014.31 1014.24
1012.19 1012.42 1012.69 1012.98 1013.25 1013.48 1013.66 1013.81 1013.95 1014.12 1014.35 1014.65 1015.01 1015.41 1015.80 1016.14 1016.38 1016.50 1016.49 1016.36 1016.15 1015.90 1015.65 1015.41 1015.22 1015.07 1014.95 1014.86 1014.78 1014.72 1014.68 1014.65 1014.65 1014.68 1014.72 1014.76 1014.78 1014.76 1014.69 1014.57 1014.43 1014.28 1014.15
1012.36 1012.62 1012.92 1013.22 1013.50 1013.73 1013.92 1014.08 1014.24 1014.42 1014.66 1014.96 1015.31 1015.69 1016.04 1016.33 1016.52 1016.58 1016.52 1016.35 1016.12 1015.85 1015.60 1015.38 1015.22 1015.11 1015.05 1015.01 1014.99 1014.98 1014.97 1014.97 1014.98 1015.00 1015.02 1015.04 1015.04 1015.00 1014.91 1014.77 1014.60 1014.42 1014.26
1012.38 1012.67 1013.00 1013.32 1013.62 1013.88 1014.10 1014.29 1014.48 1014.68 1014.92 1015.20 1015.52 1015.84 1016.14 1016.36 1016.49 1016.51 1016.42 1016.24 1016.01 1015.77 1015.56 1015.41 1015.32 1015.30 1015.32 1015.38 1015.43 1015.49 1015.53 1015.55 1015.56 1015.56 1015.56 1015.54 1015.50 1015.42 1015.31 1015.15 1014.96 1014.77 1014.58
1012.29 1012.60 1012.94 1013.29 1013.62 1013.92 1014.19 1014.42 1014.64 1014.86 1015.09 1015.34 1015.60 1015.85 1016.07 1016.23 1016.31 1016.29 1016.19 1016.04 1015.85 1015.68 1015.55 1015.49 1015.51 1015.60 1015.74 1015.90 1016.06 1016.19 1016.29 1016.34 1016.36 1016.34 1016.30 1016.23 1016.14 1016.02 1015.88 1015.70 1015.50 1015.30 1015.10
1012.15 1012.45 1012.79 1013.16 1013.52 1013.87 1014.19 1014.47 1014.72 1014.95 1015.17 1015.37 1015.56 1015.73 1015.87 1015.96 1016.00 1015.97 1015.89 1015.78 1015.67 1015.59 1015.56 1015.61 1015.75 1015.95 1016.21 1016.48 1016.75 1016.97 1017.13 1017.23 1017.26 1017.23 1017.15 1017.04 1016.91 1016.75 1016.58 1016.39 1016.18 1015.98 1015.79
1012.00 1012.27 1012.59 1012.96 1013.34 1013.73 1014.10 1014.44 1014.72 1014.96 1015.15 1015.30 1015.42 1015.51 1015.58 1015.61 1015.62 1015.60 1015.57 1015.53 1015.50 1015.52 1015.60 1015.75 1015.99 1016.29 1016.65 1017.03 1017.38 1017.69 1017.93 1018.08 1018.14 1018.12 1018.04 1017.91 1017.75 1017.56 1017.37 1017.17 1016.97 1016.77 1016.59
1011.88 1012.10 1012.38 1012.73 1013.13 1013.55 1013.97 1014.34 1014.66 1014.91 1015.07 1015.17 1015.22 1015.24 1015.24 1015.24 1015.24 1015.25 1015.27 1015.31 1015.37 1015.48 1015.65 1015.88 1016.19 1016.56 1016.98 1017.43 1017.86 1018.25 1018.56 1018.78 1018.90 1018.93 1018.87 1018.75 1018.59 1018.41 1018.21 1018.01 1017.82 1017.63 1017.46
1011.80 1011.97 1012.21 1012.53 1012.92 1013.36 1013.81 1014.22 1014.56 1014.81 1014.95 1015.01 1015.00 1014.95 1014.91 1014.88 1014.89 1014.94 1015.03 1015.15 1015.30 1015.48 1015.71 1015.98 1016.32 1016.72 1017.16 1017.64 1018.12 1018.58 1018.97 1019.27 1019.48 1019.58 1019.59 1019.52 1019.39 1019.23 1019.06 1018.88 1018.70 1018.53 1018.36
1011.79 1011.89 1012.07 1012.36 1012.74 1013.19 1013.65 1014.09 1014.44 1014.69 1014.82 1014.83 1014.78 1014.69 1014.62 1014.58 1014.61 1014.71 1014.86 1015.05 1015.27 1015.51 1015.77 1016.05 1016.38 1016.75 1017.18 1017.66 1018.17 1018.67 1019.13 1019.53 1019.84 1020.05 1020.15 1020.17 1020.12 1020.01 1019.88 1019.73 1019.57 1019.42 1019.26
1011.79 1011.85 1011.99 1012.24 1012.59 1013.03 1013.50 1013.95 1014.32 1014.56 1014.67 1014.66 1014.57 1014.46 1014.36 1014.33 1014.39 1014.53 1014.75 1015.01 1015.28 1015.55 1015.82 1016.08 1016.37 1016.69 1017.08 1017.53 1018.03 1018.56 1019.10 1019.59 1020.01 1020.34 1020.57 1020.70 1020.74 1020.71 1020.64 1020.53 1020.41 1020.27 1020.12
1011.78 1011.81 1011.92 1012.13 1012.46 1012.88 1013.35 1013.80 1014.17 1014.41 1014.51 1014.49 1014.38 1014.24 1014.14 1014.12 1014.20 1014.39 1014.66 1014.97 1015.29 1015.58 1015.84 1016.08 1016.31 1016.57 1016.90 1017.30 1017.78 1018.33 1018.91 1019.49 1020.02 1020.48 1020.83 1021.08 1021.23 1021.30 1021.29 1021.24 1021.14 1021.03 1020.89
1011.68 1011.72 1011.81 1012.00 1012.30 1012.71 1013.17 1013.61 1013.98 1014.22 1014.32 1014.28 1014.16 1014.02 1013.91 1013.90 1014.01 1014.23 1014.54 1014.90 1015.25 1015.56 1015.82 1016.03 1016.21 1016.42 1016.68 1017.03 1017.48 1018.03 1018.64 1019.28 1019.91 1020.47 1020.94 1021.30 1021.56 1021.72 1021.79 1021.79 1021.74 1021.64 1021.52
1011.47 1011.53 1011.62 1011.79 1012.08 1012.47 1012.91 1013.35 1013.72 1013.97 1014.06 1014.03 1013.91 1013.76 1013.66 1013.66 1013.78 1014.03 1014.38 1014.77 1015.15 1015.48 1015.74 1015.94 1016.09 1016.25 1016.46 1016.77 1017.19 1017.72 1018.34 1019.01 1019.69 1020.33 1020.89 1021.35 1021.70 1021.94 1022.08 1022.14 1022.14 1022.08 1021.99
1011.09 1011.19 1011.30 1011.47 1011.75 1012.12 1012.56 1012.99 1013.36 1013.62 1013.73 1013.70 1013.59 1013.46 1013.37 1013.37 1013.51 1013.78 1014.14 1014.56 1014.97 1015.33 1015.60 1015.80 1015.95 1016.08 1016.26 1016.53 1016.91 1017.41 1018.02 1018.70 1019.40 1020.08 1020.70 1021.23 1021.64 1021.95 1022.16 1022.28 1022.33 1022.31 1022.26
Thickness
5795 5798 5798 5797 5797 5796 5796 5796 5795 5795 5795 5794 5793 5792 5792 5790 5789 5788 5787 5786 5785 5784 5783 5781 5780 5779 5777 5776 5775 5773 5771 5770 5768 5767 5765 5764 5762 5761 5760 5759 5758 5757 5756
5799 5799 5798 5797 5796 5795 5795 5794 5794 5794 5793 5793 5792 5791 5791 5790 5789 5787 5786 5785 5784 5783 5782 5780 5779 5778 5776 5775 5774 5772 5770 5769 5767 5766 5764 5763 5761 5760 5759 5758 5757 5756 5755
5799 5799 5798 5797 5796 5795 5794 5793 5792 5792 5791 5791 5791 5790 5789 5788 5788 5786 5785 5784 5783 5782 5781 5779 5778 5777 5775 5773 5772 5770 5769 5768 5766 5764 5763 5761 5760 5759 5758 5757 5756 5755 5754
5799 5798 5798 5797 5795 5794 5793 5792 5792 5791 5790 5790 5789 5789 5788 5787 5786 5785 5784 5783 5782 5781 5780 5779 5777 5775 5774 5772 5771 5769 5768 5767 5765 5763 5762 5760 5759 5758 5758 5756 5755 5753 5752
5797 5797 5797 5797 5796 5795 5793 5791 5791 5790 5789 5788 5788 5787 5786 5786 5785 5784 5783 5781 5780 5779 5778 5777 5775 5774 5772 5771 5770 5768 5767 5765 5764 5762 5761 5759 5758 5757 5756 5755 5754 5752 5751
5796 5796 5797 5797 5797 5797 5794 5791 5791 5789 5788 5787 5786 5785 5785 5784 5783 5782 5781 5780 5779 5778 5777 5776 5774 5773 5771 5770 5769 5767 5766 5764 5763 5761 5760 5758 5758 5756 5755 5754 5753 5752 5750
5795 5796 5796 5797 5797 5796 5794 5791 5790 5788 5787 5786 5785 5784 5783 5783 5782 5781 5780 5779 5778 5776 5776 5775 5773 5772 5770 5769 5768 5767 5765 5764 5762 5761 5759 5758 5757 5756 5755 5753 5752 5751 5749
5795 5795 5795 5795 5795 5794 5792 5790 5789 5787 5786 5785 5783 5783 5782 5781 5781 5780 5779 5778 5777 5775 5774 5773 5772 5771 5769 5768 5767 5767 5765 5763 5762 5760 5759 5758 5757 5755 5754 5753 5751 5750 5748
5795 5794 5793 5792 5792 5791 5790 5789 5788 5786 5785 5784 5782 5782 5781 5780 5779 5779 5778 5777 5775 5774 5774 5773 5772 5770 5769 5768 5767 5766 5765 5763 5762 5760 5759 5757 5756 5755 5753 5752 5750 5749 5748
5793 5792 5792 5791 5791 5790 5789 5788 5786 5785 5784 5782 5781 5780 5779 5778 5778 5778 5777 5776 5775 5774 5773 5772 5771 5770 5768 5767 5766 5765 5764 5763 5761 5759 5758 5757 5756 5754 5753 5751 5749 5748 5746
5791 5791 5791 5790 5790 5789 5788 5786 5785 5784 5782 5781 5780 5779 5778 5777 5777 5777 5777 5776 5775 5774 5773 5772 5771 5769 5767 5766 5766 5765 5763 5761 5760 5759 5757 5756 5755 5754 5752 5751 5748 5747 5745
5788 5790 5790 5790 5789 5788 5787 5785 5784 5783 5781 5780 5778 5777 5776 5775 5775 5775 5775 5775 5774 5773 5772 5771 5770 5768 5766 5765 5764 5763 5762 5760 5759 5758 5757 5756 5755 5754 5752 5750 5748 5747 5745
5791 5790 5790 5789 5789 5787 5786 5784 5783 5781 5780 5778 5777 5776 5775 5774 5773 5773 5772 5772 5772 5771 5770 5769 5768 5767 5765 5764 5763 5762 5761 5759 5758 5757 5757 5756 5755 5754 5752 5750 5748 5747 5745
5791 5791 5791 5790 5788 5787 5786 5784 5782 5781 5779 5777 5776 5775 5774 5773 5772 5771 5770 5770 5770 5769 5768 5767 5766 5765 5764 5763 5762 5761 5760 5758 5757 5757 5757 5756 5755 5754 5752 5750 5748 5747 5745
5792 5792 5791 5791 5789 5788 5786 5784 5782 5781 5779 5777 5776 5774 5773 5772 5770 5770 5769 5769 5768 5768 5767 5765 5764 5764 5763 5762 5761 5760 5759 5758 5757 5756 5756 5756 5755 5754 5752 5750 5748 5746 5745
5794 5793 5793 5791 5790 5789 5787 5784 5782 5781 5779 5777 5776 5774 5773 5772 5770 5769 5768 5767 5767 5766 5765 5764 5763 5762 5761 5761 5760 5759 5758 5757 5757 5756 5756 5756 5755 5754 5752 5750 5748 5746 5745
5797 5796 5794 5793 5792 5790 5788 5785 5783 5781 5780 5777 5775 5774 5773 5771 5770 5768 5767 5766 5766 5765 5764 5763 5762 5761 5760 5760 5759 5758 5757 5757 5756 5756 5756 5755 5754 5753 5752 5750 5748 5746 5745
5799 5797 5795 5796 5793 5790 5788 5786 5784 5781 5779 5777 5776 5774 5773 5771 5770 5768 5767 5765 5765 5764 5763 5762 5760 5759 5758 5757 5756 5756 5756 5756 5756 5755 5755 5754 5753 5752 5751 5750 5748 5746 5744
5801 5799 5796 5795 5793 5791 5788 5786 5783 5781 5779 5777 5776 5774 5773 5771 5770 5768 5766 5765 5764 5763 5761 5761 5759 5757 5755 5755 5755 5754 5754 5754 5754 5754 5754 5753 5752 5751 5749 5748 5747 5745 5744
5803 5800 5797 5794 5792 5790 5787 5784 5782 5780 5778 5777 5775 5774 5773 5771 5770 5768 5766 5765 5763 5761 5759 5758 5756 5755 5754 5753 5753 5752 5752 5753 5753 5752 5752 5751 5750 5749 5747 5746 5745 5744 5743
5802 5800 5797 5793 5791 5789 5785 5782 5779 5777 5776 5775 5775 5774 5772 5771 5769 5767 5765 5764 5762 5760 5758 5757 5755 5753 5751 5751 5749 5747 5749 5750 5750 5750 5750 5749 5748 5747 5745 5744 5743 5742 5741
5802 5799 5797 5794 5792 5790 5787 5784 5781 5778 5776 5775 5774 5773 5772 5770 5769 5767 5765 5763 5761 5759 5757 5755 5753 5751 5749 5749 5746 5742 5739 5741 5744 5747 5747 5746 5745 5744 5743 5741 5740 5739 5738
5802 5800 5798 5794 5792 5790 5788 5784 5780 5777 5774 5772 5771 5770 5770 5769 5768 5766 5765 5763 5761 5759 5756 5754 5753 5750 5746 5747 5746 5741 5734 5732 5736 5741 5742 5742 5741 5740 5739 5738 5737 5736 5735
5804 5802 5799 5795 5792 5790 5788 5784 5779 5774 5770 5770 5769 5769 5769 5768 5767 5765 5763 5762 5760 5758 5756 5754 5753 5750 5747 5744 5743 5742 5739 5737 5732 5731 5734 5736 5737 5736 5735 5735 5734 5733 5732
5804 5802 5799 5795 5792 5790 5787 5784 5780 5776 5773 5771 5769 5767 5766 5766 5765 5763 5762 5760 5758 5756 5754 5752 5751 5749 5747 5744 5741 5739 5737 5735 5732 5727 5725 5729 5731 5732 5732 5731 5730 5729 5729
5804 5801 5798 5794 5791 5789 5786 5783 5779 5775 5772 5769 5766 5764 5763 5763 5762 5761 5760 5758 5756 5754 5752 5751 5749 5747 5744 5742 5740 5738 5735 5732 5729 5726 5723 5723 5723 5726 5728 5728 5727 5726 5726